Home > Weather > Creston > Past weeks

Flag for Canada Weather for the Past 2 Weeks in Creston, British Columbia, Canada

Now
49 °F

Cool.


Feels Like: 49 °F
Forecast: 41 / 78 °F
Wind: 1 mph from Northeast

Location: Creston

Current Time: May 2, 2016 at 3:53:43 AM

Latest Report: May 2, 2016 at 3:00 AM


Visibility: N/A

Pressure: 30.15 "Hg (27.99 "Hg at 617m altitude)

Humidity: 59%

Dew Point: 35 °F

Location of CrestonLocation

Historic Weather in Creston — Graph

°F

Creston Temperature Yesterday

Maximum temperature yesterday: 72 °F (at 4:00 PM)
Minimum temperature yesterday: 43 °F (at 5:00 AM)
Average temperature yesterday: 57 °F

High & Low Weather Summary for the Past Weeks

 TemperatureHumidityPressure
High80 °F (Apr 20, 6:00 PM)100% (Apr 30, 5:00 AM)30.50 "Hg (Apr 30, 5:00 AM)
Low40 °F (Apr 17, 6:00 AM)24% (Apr 18, 6:00 PM)29.60 "Hg (Apr 22, 7:00 AM)
Average56 °F60%30.02 "Hg
* Reported Apr 17 2:00 AM — May 2 2:00 AM, Creston, Weather by CustomWeather, © 2016

Note: Actual official high and low records may vary slightly from our data, if they occured in-between our weather recording intervals... More about our weather records

Advertising

Creston Weather History for the Previous 24 Hours

Scroll right to see more
 ConditionsComfort  
Time TempWeatherWind HumidityBarometerVisibility
2:00 AM
Mon, May 2
53 °FCool.2 mph52%30.15 "HgN/A
1:00 AM54 °FCool.3 mph53%30.14 "HgN/A
12:00 AM56 °FRefreshingly cool.2 mph50%30.14 "HgN/A
11:00 PM
Sun, May 1
56 °FRefreshingly cool.3 mph53%30.13 "HgN/A
10:00 PM58 °FRefreshingly cool.5 mph49%30.12 "HgN/A
9:00 PM59 °FRefreshingly cool.5 mph49%30.11 "HgN/A
8:00 PM62 °FMild.1 mph43%30.09 "HgN/A
7:00 PM70 °FMild.5 mph28%30.08 "HgN/A
6:00 PM71 °FMild.6 mph29%30.09 "HgN/A
5:00 PM72 °FMild.5 mph28%30.11 "HgN/A
4:00 PM72 °FMild.5 mph32%30.14 "HgN/A
3:00 PM70 °FMild.3 mph33%30.16 "HgN/A
2:00 PM69 °FMild.3 mph40%30.18 "HgN/A
1:00 PM64 °FMild.3 mph45%30.21 "HgN/A
12:00 PM62 °FRefreshingly cool.6 mph50%30.25 "HgN/A
11:00 AM59 °FRefreshingly cool.5 mph57%30.28 "HgN/A
10:00 AM54 °FCool.8 mph64%30.32 "HgN/A
9:00 AM51 °FCool.5 mph67%30.34 "HgN/A
8:00 AM51 °FCool.1 mph72%30.36 "HgN/A
7:00 AM47 °FCool.3 mph70%30.37 "HgN/A
6:00 AM44 °FQuite cool.3 mph73%30.37 "HgN/A
5:00 AM43 °FQuite cool.1 mph77%30.36 "HgN/A
4:00 AM45 °FQuite cool.2 mph74%30.36 "HgN/A
3:00 AM44 °FQuite cool.5 mph72%30.35 "HgN/A
Weather by CustomWeather, © 2016

See weather overviewHow to use our weather pages